Weather History for KCFV - August, 2013

Change the Weather History Date:

Thursday, August 29, 2013

  Actual Average (WUND) Record (WUND)
Temperature  
Mean Temperature 86 °F -  
Max Temperature 97 °F - - (-1)
Min Temperature 75 °F - - (-1)
Cooling Degree Days 21    
Growing Degree Days 36 (Base 50)    
Moisture  
Dew Point 71 °F    
Average Humidity 65    
Maximum Humidity 90    
Minimum Humidity 38    
Precipitation  
Precipitation 0.00 in - - ()
Sea Level Pressure  
Sea Level Pressure 29.99 in    
Wind  
Wind Speed 4 mph (South)    
Max Wind Speed 10 mph    
Max Gust Speed -    
Visibility 10 miles    
Events      
Averages and records for this station are not official NWS values.
T = Trace of Precipitation, MM = Missing Value Source: NWS Daily Summary

Daily Weather History Graph

Daily Weather History Graph

Search for Another Location

Airport or City:

Trip Planner

Search our weather history database for the weather conditions in past years. The results will help you decide how hot, cold, wet, or windy it might be!

Date:

Astronomy

Aug. 29, 2013 Rise Set
Actual Time 6:50 AM CDT 7:54 PM CDT
Civil Twilight 6:24 AM CDT 8:21 PM CDT
Nautical Twilight 5:52 AM CDT 8:53 PM CDT
Astronomical Twilight 5:19 AM CDT 9:26 PM CDT
Moon 12:47 AM CDT (8/29) 3:20 PM CDT (8/29)
Length of Visible Light 13h 57m
Length of Day
13h 04m
Last Quarter, 38% of the Moon is Illuminated
Aug 29
Last Quarter
Sep 5
New
Sep 12
First Quarter
Sep 19
Full
Sep 26
Last Quarter

Hourly Weather History & Observations

Time (CDT) Temp. Heat Index Dew Point Humidity Pressure Visibility Wind Dir Wind Speed Gust Speed Precip Events Conditions
12:52 AM 78.1 °F - 72.0 °F 81% 30.00 in 10.0 mi SE 4.6 mph - N/A   Clear
1:52 AM 78.1 °F - 72.0 °F 81% 30.01 in 10.0 mi Calm Calm - N/A   Clear
2:52 AM 75.0 °F - 72.0 °F 90% 30.01 in 10.0 mi Calm Calm - N/A   Clear
3:52 AM 75.9 °F - 71.1 °F 85% 30.01 in 10.0 mi Calm Calm - N/A   Clear
4:52 AM 75.9 °F - 71.1 °F 85% 30.01 in 10.0 mi SSE 4.6 mph - N/A   Overcast
5:52 AM 75.9 °F - 71.1 °F 85% 30.01 in 10.0 mi South 3.5 mph - N/A   Mostly Cloudy
6:52 AM 77.0 °F - 71.1 °F 82% 30.02 in 10.0 mi Calm Calm - N/A   Overcast
7:52 AM 77.0 °F - 71.1 °F 82% 30.04 in 10.0 mi SE 3.5 mph - N/A   Mostly Cloudy
8:52 AM 81.0 °F 85.2 °F 72.0 °F 74% 30.04 in 10.0 mi South 5.8 mph - N/A   Overcast
9:52 AM 84.0 °F 89.6 °F 72.0 °F 67% 30.04 in 10.0 mi South 10.4 mph - N/A   Overcast
10:52 AM 87.1 °F 93.6 °F 72.0 °F 61% 30.04 in 10.0 mi South 6.9 mph - N/A   Clear
11:52 AM 93.0 °F 100.7 °F 72.0 °F 50% 30.03 in 10.0 mi South 6.9 mph - N/A   Mostly Cloudy
12:52 PM 93.0 °F 97.9 °F 69.1 °F 45% 30.01 in 10.0 mi SSW 8.1 mph - N/A   Clear
1:52 PM 96.1 °F 101.6 °F 69.1 °F 41% 29.99 in 10.0 mi SSW 8.1 mph - N/A   Clear
2:52 PM 96.1 °F 99.9 °F 66.9 °F 38% 29.99 in 10.0 mi SW 9.2 mph - N/A   Clear
3:52 PM 97.0 °F 103.5 °F 70.0 °F 41% 29.96 in 10.0 mi SSW 6.9 mph - N/A   Clear
4:52 PM 95.0 °F 101.3 °F 70.0 °F 44% 29.96 in 10.0 mi WSW 8.1 mph - N/A   Clear
5:52 PM 96.1 °F 101.0 °F 68.0 °F 40% 29.95 in 10.0 mi SW 9.2 mph - N/A   Clear
6:52 PM 93.0 °F 99.0 °F 70.0 °F 47% 29.94 in 10.0 mi South 6.9 mph - N/A   Clear
7:52 PM 89.1 °F 95.0 °F 71.1 °F 55% 29.95 in 10.0 mi South 3.5 mph - N/A   Clear
8:52 PM 84.0 °F 90.2 °F 73.0 °F 69% 29.96 in 10.0 mi SSE 3.5 mph - N/A   Clear
9:52 PM 82.9 °F 88.8 °F 73.0 °F 72% 29.96 in 10.0 mi SSE 5.8 mph - N/A   Clear
10:52 PM 82.0 °F 86.7 °F 72.0 °F 71% 29.96 in 10.0 mi South 5.8 mph - N/A   Clear
11:52 PM 80.1 °F 83.8 °F 72.0 °F 76% 29.96 in 10.0 mi Calm Calm - N/A   Clear